Regional Weather Roundup
Issued by NWS Sterling, VA

Home | Current Version | Previous Version | Text Only | Print | Product List | Glossary On
Versions: 1 2 3 4 5 6 7 8 9 10 11 12 13 14 15 16 17 18 19 20 21 22 23 24 25 26 27
000
ASUS41 KLWX 222110
RWRLWX

REGIONAL WEATHER ROUNDUP
NATIONAL WEATHER SERVICE BALTIMORE MD/WASHINGTON DC
500 PM EDT WED OCT 22 2014

Note: "FAIR" indicates few or no clouds below 12,000 feet
with no significant weather and/or obstructions to visibility.
 TC=TEMPERATURE CELSIUS

 * =Non NWS site. Station does not report precipitation (e.g. rain,
    snow, etc.), thunder, or fog.

DCZ001-MDZ009-015-VAZ040>042-051-053>054-222200-
WASHINGTON METRO

CITY           SKY/WX    TMP DP  RH WIND       PRES   REMARKS
WASHINGTON NAT CLOUDY    57  50  77 NW14      29.94R
DULLES         CLOUDY    53  48  83 NW17      29.96S
ANDREWS AFB    LGT RAIN  54  50  88 NW17G24   29.91S
FT BELVOIR     LGT RAIN  54  50  87 NW12      29.94S
QUANTICO       LGT RAIN  54  49  83 NW18G29   29.95S
COLLEGE PARK*  CLOUDY    55  50  82 NW8       29.92S
LEESBURG*      CLOUDY    55  52  88 N9G21     29.97S
MANASSAS*      CLOUDY    55  52  88 N14G23    29.96S
GAITHERSBURG*  CLOUDY    54  48  82 NW8       29.98S

$$

MDZ006>007-011-014-222200-
BALTIMORE METRO

CITY           SKY/WX    TMP DP  RH WIND       PRES   REMARKS
BWI AIRPORT    LGT RAIN  54  49  83 NW10G24   29.91R
MD SCIENCE CTR   N/A     56  48  74 MISG      29.91R
MARTIN STATE   CLOUDY    55  54  94 MISG      29.91R
ANNAPOLIS      LGT RAIN  55  51  86 NW15      29.89R
FORT MEADE*    CLOUDY    54  48  82 NW8       29.94R

$$

MDZ012-015-019>023-222200-
MARYLAND EASTERN SHORE

CITY           SKY/WX    TMP DP  RH WIND       PRES   REMARKS
OCEAN CITY     LGT RAIN  57  52  83 N18G26    29.75R
SALISBURY      CLOUDY    58  52  80 N16G26    29.79R
BAY BRIDGE AP* LGT RAIN  54  52  94 NW17G29   29.88S
CAMBRIDGE*     CLOUDY    55  54  94 N13G23    29.84R VSB<1/4
EASTON*        LGT RAIN  55  55 100 N12G17    29.89R

$$

MDZ017>025-222200-
SOUTHERN MARYLAND

CITY           SKY/WX    TMP DP  RH WIND       PRES   REMARKS
PATUXENT RIVER LGT RAIN  55  51  86 NW21G33   29.85S
ST INIGOES     LGT RAIN  55  49  80 NW10G20   29.85R
LEONARDTOWN*   CLOUDY    54  50  87 NW12G29   29.88S

$$

MDZ003>005-222200-
NORTH CENTRAL MARYLAND

CITY           SKY/WX    TMP DP  RH WIND       PRES   REMARKS
FREDERICK*     PTSUNNY   61  48  63 N9G18     29.99S
HAGERSTOWN APT CLOUDY    57  45  64 N14       29.98F
WESTMINSTER*   CLOUDY    54  48  82 N10G18    29.94S

$$

MDZ501>502-222200-
WESTERN MARYLAND

CITY           SKY/WX    TMP DP  RH WIND       PRES   REMARKS
OAKLAND*       FOG       39 N/A N/A NW8       30.09F VSB<1/4
CUMBERLAND*    PTSUNNY   54  45  71 NW14G22   30.10S

$$

VAZ025>031-222200-
SHENANDOAH VALLEY

CITY           SKY/WX    TMP DP  RH WIND       PRES   REMARKS
WINCHESTER*    CLOUDY    55  43  62 NW18G26   29.99F
FRONT ROYAL*   CLOUDY    54  45  71 NW8G18    30.00S
LURAY*         CLOUDY    54  46  76 N9G20     30.02S
NEW MARKET*    CLOUDY    53  44  71 N6        30.03S
STAUNTON*      CLOUDY    55  41  61 NW10      30.05S
WAYNESBORO*    CLOUDY    53  41  64 NW12G23   30.02R

$$

WVZ021-048>050-054>055-222200-
EASTERN WEST VIRGINIA PANHANDLE

CITY           SKY/WX    TMP DP  RH WIND       PRES   REMARKS
MARTINSBURG    PTSUNNY   56  43  61 NW16      29.99F
PETERSBURG*    CLOUDY    53  41  64 NW12G18   30.09S

$$

VAZ036>039-050-222200-
CENTRAL FOOTHILLS

CITY           SKY/WX    TMP DP  RH WIND       PRES   REMARKS
CHARLOTTESVILL CLOUDY    56  44  64 N14G29    29.99S
CULPEPER*      CLOUDY    55  48  76 N16G23    29.97F
ORANGE*        CLOUDY    55  46  71 NW8       29.98F
GORDONSVILLE*  CLOUDY    56  45  65 N6G17     29.97S
WARRENTON*     CLOUDY    56  53  90 NW14G21   29.96S

$$

VAZ055>057-222200-
NORTH AND CENTRAL PIEDMONT

CITY           SKY/WX    TMP DP  RH WIND       PRES   REMARKS
FREDERICKSBRG* CLOUDY    55  52  88 NW10G20   29.94S
STAFFORD*      RAIN      53  53 100 NW13G21   29.99R

$$

NCZ024-NYZ072-PAZ021-071-VAZ022-071-222200-
OTHER REGIONAL OBSERVATIONS

CITY           SKY/WX    TMP DP  RH WIND       PRES   REMARKS
NEW YORK CITY  LGT RAIN  53  49  86 NE8       29.86S FOG
PHILADELPHIA   LGT RAIN  56  50  80 N14G23    29.84S
PITTSBURGH     CLOUDY    49  41  74 NW13      30.17S
ROANOKE        PTSUNNY   59  39  47 NW14G25   30.06S
RICHMOND       CLOUDY    56  50  80 NW20G29   29.92S
RALEIGH        PTSUNNY   64  41  42 NW7       29.97S

$$

ANZ530>537-222200-
MARINE OBSERVATIONS

STATION/POSITION TIME  TEMP    WIND        PRES
                       AIR SEA DIR/SP/G
                 (UTC) (F)     (DEG/KT/KT) (MB)
THOMAS PT LIGHT  2100   55 63  330/ 21/ 24 1012.5R
BALT KEY BRIDGE  2100   56     320/ 19/ 24 1011.9F
COVE POINT       2100   56     350/ 32/ 39 1010.5S
LEWISETTA        2100   56 62  340/ 19/ 28 1010.7R
SOLOMONS ISLAND  2100      65                N/A
PINEY POINT      2100          350/ 24/ 28   N/A

$$




USA.gov is the U.S. government's official web portal to all federal, state and local government web resources and services.